Year,Month,Day,Hour,Minute,Value (Times are PST for temperature in C)
2014,07,29,00,00,14.90
2014,07,29,00,01,15.00
2014,07,29,00,02,15.00
2014,07,29,00,03,15.00
2014,07,29,00,04,15.10
2014,07,29,00,05,15.10
2014,07,29,00,06,15.20
2014,07,29,00,07,15.20
2014,07,29,00,08,15.20
2014,07,29,00,09,15.20
2014,07,29,00,10,15.20
2014,07,29,00,11,15.20
2014,07,29,00,12,15.20
2014,07,29,00,13,15.20
2014,07,29,00,14,15.30
2014,07,29,00,15,15.30
2014,07,29,00,16,15.30
2014,07,29,00,17,15.30
2014,07,29,00,18,15.30
2014,07,29,00,19,15.30
2014,07,29,00,20,15.30
2014,07,29,00,21,15.30
2014,07,29,00,22,15.30
2014,07,29,00,23,15.30
2014,07,29,00,24,15.20
2014,07,29,00,25,15.30
2014,07,29,00,26,15.30
2014,07,29,00,27,15.30
2014,07,29,00,28,15.40
2014,07,29,00,29,15.30
2014,07,29,00,30,15.30
2014,07,29,00,31,15.20
2014,07,29,00,32,15.20
2014,07,29,00,33,15.20
2014,07,29,00,34,15.20
2014,07,29,00,35,15.40
2014,07,29,00,36,15.50
2014,07,29,00,37,15.40
2014,07,29,00,38,15.30
2014,07,29,00,39,15.30
2014,07,29,00,40,15.30
2014,07,29,00,41,15.20
2014,07,29,00,42,15.20
2014,07,29,00,43,15.20
2014,07,29,00,44,15.10
2014,07,29,00,45,15.10
2014,07,29,00,46,15.00
2014,07,29,00,47,14.90
2014,07,29,00,48,14.90
2014,07,29,00,49,14.90
2014,07,29,00,50,15.00
2014,07,29,00,51,15.00
2014,07,29,00,52,14.90
2014,07,29,00,53,14.90
2014,07,29,00,54,14.80
2014,07,29,00,55,14.80
2014,07,29,00,56,14.80
2014,07,29,00,57,14.80
2014,07,29,00,58,14.80
2014,07,29,00,59,14.80
2014,07,29,01,00,14.90
2014,07,29,01,01,14.90
2014,07,29,01,02,14.80
2014,07,29,01,03,14.70
2014,07,29,01,04,14.80
2014,07,29,01,05,14.80
2014,07,29,01,06,14.80
2014,07,29,01,07,14.90
2014,07,29,01,08,14.90
2014,07,29,01,09,15.00
2014,07,29,01,10,14.90
2014,07,29,01,11,14.90
2014,07,29,01,12,14.90
2014,07,29,01,13,14.90
2014,07,29,01,14,14.80
2014,07,29,01,15,14.90
2014,07,29,01,16,14.80
2014,07,29,01,17,14.80
2014,07,29,01,18,14.90
2014,07,29,01,19,15.00
2014,07,29,01,20,15.10
2014,07,29,01,21,15.10
2014,07,29,01,22,15.10
2014,07,29,01,23,15.10
2014,07,29,01,24,15.20
2014,07,29,01,25,15.10
2014,07,29,01,26,15.20
2014,07,29,01,27,15.10
2014,07,29,01,28,15.10
2014,07,29,01,29,15.10
2014,07,29,01,30,15.20
2014,07,29,01,31,15.20
2014,07,29,01,32,15.30
2014,07,29,01,33,15.30
2014,07,29,01,34,15.30
2014,07,29,01,35,15.40
2014,07,29,01,36,15.50
2014,07,29,01,37,15.50
2014,07,29,01,38,15.50
2014,07,29,01,39,15.40
2014,07,29,01,40,15.30
2014,07,29,01,41,15.20
2014,07,29,01,42,15.10
2014,07,29,01,43,15.00
2014,07,29,01,44,15.00
2014,07,29,01,45,15.00
2014,07,29,01,46,15.00
2014,07,29,01,47,15.00
2014,07,29,01,48,15.00
2014,07,29,01,49,15.00
2014,07,29,01,50,15.10
2014,07,29,01,51,15.10
2014,07,29,01,52,15.10
2014,07,29,01,53,15.20
2014,07,29,01,54,15.30
2014,07,29,01,55,15.20
2014,07,29,01,56,15.20
2014,07,29,01,57,15.20
2014,07,29,01,58,15.20
2014,07,29,01,59,15.10
2014,07,29,02,00,15.10
2014,07,29,02,01,15.10
2014,07,29,02,02,15.10
2014,07,29,02,03,15.10
2014,07,29,02,04,15.10
2014,07,29,02,05,15.10
2014,07,29,02,06,15.10
2014,07,29,02,07,15.10
2014,07,29,02,08,15.30
2014,07,29,02,09,15.30
2014,07,29,02,10,15.20
2014,07,29,02,11,15.20
2014,07,29,02,12,15.20
2014,07,29,02,13,15.30
2014,07,29,02,14,15.40
2014,07,29,02,15,15.40
2014,07,29,02,16,15.40
2014,07,29,02,17,15.40
2014,07,29,02,18,15.40
2014,07,29,02,19,15.40
2014,07,29,02,20,15.30
2014,07,29,02,21,15.30
2014,07,29,02,22,15.20
2014,07,29,02,23,15.20
2014,07,29,02,24,15.20
2014,07,29,02,25,15.30
2014,07,29,02,26,15.30
2014,07,29,02,27,15.30
2014,07,29,02,28,15.30
2014,07,29,02,29,15.40
2014,07,29,02,30,15.50
2014,07,29,02,31,15.60
2014,07,29,02,32,15.70
2014,07,29,02,33,15.80
2014,07,29,02,34,15.80
2014,07,29,02,35,15.80
2014,07,29,02,36,15.70
2014,07,29,02,37,15.70
2014,07,29,02,38,15.70
2014,07,29,02,39,15.80
2014,07,29,02,40,15.80
2014,07,29,02,41,15.70
2014,07,29,02,42,15.80
2014,07,29,02,43,15.90
2014,07,29,02,44,15.90
2014,07,29,02,45,16.00
2014,07,29,02,46,16.10
2014,07,29,02,47,16.10
2014,07,29,02,48,16.00
2014,07,29,02,49,15.90
2014,07,29,02,50,15.70
2014,07,29,02,51,15.70
2014,07,29,02,52,15.60
2014,07,29,02,53,15.40
2014,07,29,02,54,15.20
2014,07,29,02,55,15.00
2014,07,29,02,56,14.80
2014,07,29,02,57,14.80
2014,07,29,02,58,15.00
2014,07,29,02,59,15.00
2014,07,29,03,00,14.80
2014,07,29,03,01,14.80
2014,07,29,03,02,14.90
2014,07,29,03,03,14.90
2014,07,29,03,04,14.90
2014,07,29,03,05,14.90
2014,07,29,03,06,14.90
2014,07,29,03,07,14.90
2014,07,29,03,08,15.10
2014,07,29,03,09,15.20
2014,07,29,03,10,15.30
2014,07,29,03,11,15.30
2014,07,29,03,12,15.30
2014,07,29,03,13,15.30
2014,07,29,03,14,15.20
2014,07,29,03,15,15.20
2014,07,29,03,16,15.30
2014,07,29,03,17,15.10
2014,07,29,03,18,15.00
2014,07,29,03,19,15.10
2014,07,29,03,20,15.10
2014,07,29,03,21,15.00
2014,07,29,03,22,15.10
2014,07,29,03,23,15.20
2014,07,29,03,24,15.30
2014,07,29,03,25,15.40
2014,07,29,03,26,15.30
2014,07,29,03,27,15.20
2014,07,29,03,28,15.10
2014,07,29,03,29,15.10
2014,07,29,03,30,15.00
2014,07,29,03,31,15.00
2014,07,29,03,32,15.00
2014,07,29,03,33,15.10
2014,07,29,03,34,15.10
2014,07,29,03,35,15.20
2014,07,29,03,36,15.20
2014,07,29,03,37,15.20
2014,07,29,03,38,15.20
2014,07,29,03,39,15.20
2014,07,29,03,40,15.20
2014,07,29,03,41,15.30
2014,07,29,03,42,15.30
2014,07,29,03,43,15.40
2014,07,29,03,44,15.40
2014,07,29,03,45,15.50
2014,07,29,03,46,15.50
2014,07,29,03,47,15.50
2014,07,29,03,48,15.50
2014,07,29,03,49,15.40
2014,07,29,03,50,15.40
2014,07,29,03,51,15.30
2014,07,29,03,52,15.20
2014,07,29,03,53,15.10
2014,07,29,03,54,15.00
2014,07,29,03,55,14.80
2014,07,29,03,56,14.70
2014,07,29,03,57,14.60
2014,07,29,03,58,14.50
2014,07,29,03,59,14.50
2014,07,29,04,00,14.40
2014,07,29,04,01,14.30
2014,07,29,04,02,14.30
2014,07,29,04,03,14.30
2014,07,29,04,04,14.40
2014,07,29,04,05,14.40
2014,07,29,04,06,14.50
2014,07,29,04,07,14.60
2014,07,29,04,08,14.60
2014,07,29,04,09,14.60
2014,07,29,04,10,14.70
2014,07,29,04,11,14.70
2014,07,29,04,12,14.70
2014,07,29,04,13,14.70
2014,07,29,04,14,14.70
2014,07,29,04,15,14.70
2014,07,29,04,16,14.70
2014,07,29,04,17,14.70
2014,07,29,04,18,14.70
2014,07,29,04,19,14.80
2014,07,29,04,20,14.80
2014,07,29,04,21,14.80
2014,07,29,04,22,14.80
2014,07,29,04,23,14.80
2014,07,29,04,24,14.90
2014,07,29,04,25,15.00
2014,07,29,04,26,15.00
2014,07,29,04,27,15.10
2014,07,29,04,28,15.00
2014,07,29,04,29,15.00
2014,07,29,04,30,14.90
2014,07,29,04,31,14.90
2014,07,29,04,32,14.80
2014,07,29,04,33,14.80
2014,07,29,04,34,14.70
2014,07,29,04,35,14.70
2014,07,29,04,36,14.70
2014,07,29,04,37,14.60
2014,07,29,04,38,14.60
2014,07,29,04,39,14.60
2014,07,29,04,40,14.60
2014,07,29,04,41,14.60
2014,07,29,04,42,14.60
2014,07,29,04,43,14.60
2014,07,29,04,44,14.50
2014,07,29,04,45,14.50
2014,07,29,04,46,14.50
2014,07,29,04,47,14.40
2014,07,29,04,48,14.40
2014,07,29,04,49,14.30
2014,07,29,04,50,14.30
2014,07,29,04,51,14.30
2014,07,29,04,52,14.30
2014,07,29,04,53,14.30
2014,07,29,04,54,14.30
2014,07,29,04,55,14.20
2014,07,29,04,56,14.20
2014,07,29,04,57,14.20
2014,07,29,04,58,14.20
2014,07,29,04,59,14.20
2014,07,29,05,00,14.30
2014,07,29,05,01,14.30
2014,07,29,05,02,14.30
2014,07,29,05,03,14.40
2014,07,29,05,04,14.50
2014,07,29,05,05,14.50
2014,07,29,05,06,14.60
2014,07,29,05,07,14.60
2014,07,29,05,08,14.70
2014,07,29,05,09,14.70
2014,07,29,05,10,14.70
2014,07,29,05,11,14.60
2014,07,29,05,12,14.60
2014,07,29,05,13,14.60
2014,07,29,05,14,14.60
2014,07,29,05,15,14.60
2014,07,29,05,16,14.50
2014,07,29,05,17,14.50
2014,07,29,05,18,14.50
2014,07,29,05,19,14.40
2014,07,29,05,20,14.40
2014,07,29,05,21,14.40
2014,07,29,05,22,14.40
2014,07,29,05,23,14.40
2014,07,29,05,24,14.40
2014,07,29,05,25,14.40
2014,07,29,05,26,14.40
2014,07,29,05,27,14.40
2014,07,29,05,28,14.30
2014,07,29,05,29,14.30
2014,07,29,05,30,14.30
2014,07,29,05,31,14.30
2014,07,29,05,32,14.40
2014,07,29,05,33,14.40
2014,07,29,05,34,14.50
2014,07,29,05,35,14.50
2014,07,29,05,36,14.60
2014,07,29,05,37,14.60
2014,07,29,05,38,14.60
2014,07,29,05,39,14.60
2014,07,29,05,40,14.60
2014,07,29,05,41,14.60
2014,07,29,05,42,14.70
2014,07,29,05,43,14.70
2014,07,29,05,44,14.70
2014,07,29,05,45,14.70
2014,07,29,05,46,14.80
2014,07,29,05,47,14.80
2014,07,29,05,48,14.80
2014,07,29,05,49,14.80
2014,07,29,05,50,14.80
2014,07,29,05,51,14.70
2014,07,29,05,52,14.70
2014,07,29,05,53,14.60
2014,07,29,05,54,14.60
2014,07,29,05,55,14.60
2014,07,29,05,56,14.50
2014,07,29,05,57,14.50
2014,07,29,05,58,14.50
2014,07,29,05,59,14.50
2014,07,29,06,00,14.50
2014,07,29,06,01,14.60
2014,07,29,06,02,14.60
2014,07,29,06,03,14.60
2014,07,29,06,04,14.60
2014,07,29,06,05,14.60
2014,07,29,06,06,14.60
2014,07,29,06,07,14.60
2014,07,29,06,08,14.60
2014,07,29,06,09,14.60
2014,07,29,06,10,14.50
2014,07,29,06,11,14.50
2014,07,29,06,12,14.40
2014,07,29,06,13,14.30
2014,07,29,06,14,14.30
2014,07,29,06,15,14.20
2014,07,29,06,16,14.20
2014,07,29,06,17,14.20
2014,07,29,06,18,14.20
2014,07,29,06,19,14.20
2014,07,29,06,20,14.10
2014,07,29,06,21,14.10
2014,07,29,06,22,14.10
2014,07,29,06,23,14.10
2014,07,29,06,24,14.00
2014,07,29,06,25,14.00
2014,07,29,06,26,13.90
2014,07,29,06,27,13.90
2014,07,29,06,28,13.90
2014,07,29,06,29,14.00
2014,07,29,06,30,14.10
2014,07,29,06,31,14.00
2014,07,29,06,32,14.00
2014,07,29,06,33,14.10
2014,07,29,06,34,14.20
2014,07,29,06,35,14.20
2014,07,29,06,36,14.30
2014,07,29,06,37,14.40
2014,07,29,06,38,14.40
2014,07,29,06,39,14.40
2014,07,29,06,40,14.40
2014,07,29,06,41,14.50
2014,07,29,06,42,14.50
2014,07,29,06,43,14.50
2014,07,29,06,44,14.50
2014,07,29,06,45,14.60
2014,07,29,06,46,14.60
2014,07,29,06,47,14.60
2014,07,29,06,48,14.60
2014,07,29,06,49,14.60
2014,07,29,06,50,14.60
2014,07,29,06,51,14.60
2014,07,29,06,52,14.60
2014,07,29,06,53,14.60
2014,07,29,06,54,14.50
2014,07,29,06,55,14.50
2014,07,29,06,56,14.50
2014,07,29,06,57,14.40
2014,07,29,06,58,14.40
2014,07,29,06,59,14.30
2014,07,29,07,00,14.30
2014,07,29,07,01,14.20
2014,07,29,07,02,14.20
2014,07,29,07,03,14.20
2014,07,29,07,04,14.20
2014,07,29,07,05,14.20
2014,07,29,07,06,14.20
2014,07,29,07,07,14.20
2014,07,29,07,08,14.30
2014,07,29,07,09,14.30
2014,07,29,07,10,14.30
2014,07,29,07,11,14.30
2014,07,29,07,12,14.40
2014,07,29,07,13,14.40
2014,07,29,07,14,14.40
2014,07,29,07,15,14.40
2014,07,29,07,16,14.40
2014,07,29,07,17,14.30
2014,07,29,07,18,14.30
2014,07,29,07,19,14.30
2014,07,29,07,20,14.30
2014,07,29,07,21,14.30
2014,07,29,07,22,14.30
2014,07,29,07,23,14.30
2014,07,29,07,24,14.30
2014,07,29,07,25,14.30
2014,07,29,07,26,14.30
2014,07,29,07,27,14.40
2014,07,29,07,28,14.40
2014,07,29,07,29,14.40
2014,07,29,07,30,14.40
2014,07,29,07,31,14.40
2014,07,29,07,32,14.50
2014,07,29,07,33,14.60
2014,07,29,07,34,14.60
2014,07,29,07,35,14.60
2014,07,29,07,36,14.50
2014,07,29,07,37,14.50
2014,07,29,07,38,14.40
2014,07,29,07,39,14.20
2014,07,29,07,40,14.00
2014,07,29,07,41,13.80
2014,07,29,07,42,13.60
2014,07,29,07,43,13.50
2014,07,29,07,44,13.40
2014,07,29,07,45,13.40
2014,07,29,07,46,13.30
2014,07,29,07,47,13.30
2014,07,29,07,48,13.30
2014,07,29,07,49,13.30
2014,07,29,07,50,13.30
2014,07,29,07,51,13.30
2014,07,29,07,52,13.30
2014,07,29,07,53,13.30
2014,07,29,07,54,13.30
2014,07,29,07,55,13.40
2014,07,29,07,56,13.30
2014,07,29,07,57,13.30
2014,07,29,07,58,13.20
2014,07,29,07,59,13.10
2014,07,29,08,00,13.00
2014,07,29,08,01,12.90
2014,07,29,08,02,12.80
2014,07,29,08,03,12.70
2014,07,29,08,04,12.60
2014,07,29,08,05,12.60
2014,07,29,08,06,12.60
2014,07,29,08,07,12.60
2014,07,29,08,08,12.60
2014,07,29,08,09,12.60
2014,07,29,08,10,12.70
2014,07,29,08,11,12.80
2014,07,29,08,12,12.90
2014,07,29,08,13,12.90
2014,07,29,08,14,13.00
2014,07,29,08,15,13.10
2014,07,29,08,16,13.10
2014,07,29,08,17,13.20
2014,07,29,08,18,13.20
2014,07,29,08,19,13.30
2014,07,29,08,20,13.30
2014,07,29,08,21,13.40
2014,07,29,08,22,13.40
2014,07,29,08,23,13.40
2014,07,29,08,24,13.50
2014,07,29,08,25,13.60
2014,07,29,08,26,13.60
2014,07,29,08,27,13.70
2014,07,29,08,28,13.80
2014,07,29,08,29,13.90
2014,07,29,08,30,14.00
2014,07,29,08,31,14.10
2014,07,29,08,32,14.20
2014,07,29,08,33,14.20
2014,07,29,08,34,14.30
2014,07,29,08,35,14.30
2014,07,29,08,36,14.40
2014,07,29,08,37,14.40
2014,07,29,08,38,14.40
2014,07,29,08,39,14.40
2014,07,29,08,40,14.40
2014,07,29,08,41,14.50
2014,07,29,08,42,14.50
2014,07,29,08,43,14.50
2014,07,29,08,44,14.60
2014,07,29,08,45,14.60
2014,07,29,08,46,14.70
2014,07,29,08,47,14.70
2014,07,29,08,48,14.80
2014,07,29,08,49,14.90
2014,07,29,08,50,14.90
2014,07,29,08,51,15.00
2014,07,29,08,52,15.00
2014,07,29,08,53,15.10
2014,07,29,08,54,15.20
2014,07,29,08,55,15.20
2014,07,29,08,56,15.30
2014,07,29,08,57,15.30
2014,07,29,08,58,15.30
2014,07,29,08,59,15.30
2014,07,29,09,00,15.40
2014,07,29,09,01,15.40
2014,07,29,09,02,15.40
2014,07,29,09,03,15.40
2014,07,29,09,04,15.40
2014,07,29,09,05,15.50
2014,07,29,09,06,15.50
2014,07,29,09,07,15.60
2014,07,29,09,08,15.60
2014,07,29,09,09,15.70
2014,07,29,09,10,15.70
2014,07,29,09,11,15.70
2014,07,29,09,12,15.70
2014,07,29,09,13,15.70
2014,07,29,09,14,15.70
2014,07,29,09,15,15.70
2014,07,29,09,16,15.70
2014,07,29,09,17,15.70
2014,07,29,09,18,15.70
2014,07,29,09,19,15.70
2014,07,29,09,20,15.80
2014,07,29,09,21,15.80
2014,07,29,09,22,15.80
2014,07,29,09,23,15.70
2014,07,29,09,24,15.70
2014,07,29,09,25,15.70
2014,07,29,09,26,15.70
2014,07,29,09,27,15.70
2014,07,29,09,28,15.70
2014,07,29,09,29,15.60
2014,07,29,09,30,15.60
2014,07,29,09,31,15.60
2014,07,29,09,32,15.60
2014,07,29,09,33,15.70
2014,07,29,09,34,15.60
2014,07,29,09,35,15.60
2014,07,29,09,36,15.60
2014,07,29,09,37,15.60
2014,07,29,09,38,15.60
2014,07,29,09,39,15.50
2014,07,29,09,40,15.20
2014,07,29,09,41,14.90
2014,07,29,09,42,14.60
2014,07,29,09,43,14.30
2014,07,29,09,44,14.10
2014,07,29,09,45,14.00
2014,07,29,09,46,13.90
2014,07,29,09,47,13.80
2014,07,29,09,48,13.70
2014,07,29,09,49,13.60
2014,07,29,09,50,13.60
2014,07,29,09,51,13.60
2014,07,29,09,52,13.50
2014,07,29,09,53,13.50
2014,07,29,09,54,13.60
2014,07,29,09,55,13.50
2014,07,29,09,56,13.40
2014,07,29,09,57,13.30
2014,07,29,09,58,13.30
2014,07,29,09,59,13.30
2014,07,29,10,00,13.20
2014,07,29,10,01,13.20
2014,07,29,10,02,13.20
2014,07,29,10,03,13.20
2014,07,29,10,04,13.20
2014,07,29,10,05,13.30
2014,07,29,10,06,13.30
2014,07,29,10,07,13.30
2014,07,29,10,08,13.30
2014,07,29,10,09,13.30
2014,07,29,10,10,13.30
2014,07,29,10,11,13.30
2014,07,29,10,12,13.30
2014,07,29,10,13,13.30
2014,07,29,10,14,13.30
2014,07,29,10,15,13.30
2014,07,29,10,16,13.30
2014,07,29,10,17,13.40
2014,07,29,10,18,13.40
2014,07,29,10,19,13.50
2014,07,29,10,20,13.60
2014,07,29,10,21,13.80
2014,07,29,10,22,13.90
2014,07,29,10,23,14.00
2014,07,29,10,24,14.20
2014,07,29,10,25,14.30
2014,07,29,10,26,14.30
2014,07,29,10,27,14.40
2014,07,29,10,28,14.40
2014,07,29,10,29,14.40
2014,07,29,10,30,14.40
2014,07,29,10,31,14.50
2014,07,29,10,32,14.60
2014,07,29,10,33,14.70
2014,07,29,10,34,14.80
2014,07,29,10,35,14.80
2014,07,29,10,36,14.80
2014,07,29,10,37,14.80
2014,07,29,10,38,14.90
2014,07,29,10,39,14.90
2014,07,29,10,40,15.00
2014,07,29,10,41,15.00
2014,07,29,10,42,14.90
2014,07,29,10,43,14.90
2014,07,29,10,44,14.90
2014,07,29,10,45,15.00
2014,07,29,10,46,15.00
2014,07,29,10,47,15.10
2014,07,29,10,48,15.00
2014,07,29,10,49,15.00
2014,07,29,10,50,15.00
2014,07,29,10,51,15.10
2014,07,29,10,52,15.10
2014,07,29,10,53,15.20
2014,07,29,10,54,15.20
2014,07,29,10,55,15.20
2014,07,29,10,56,15.20
2014,07,29,10,57,15.30
2014,07,29,10,58,15.40
2014,07,29,10,59,15.50
2014,07,29,11,00,15.60
2014,07,29,11,01,15.70
2014,07,29,11,02,15.70
2014,07,29,11,03,15.80
2014,07,29,11,04,15.90
2014,07,29,11,05,16.00
2014,07,29,11,06,16.10
2014,07,29,11,07,16.00
2014,07,29,11,08,15.80
2014,07,29,11,09,15.70
2014,07,29,11,10,15.60
2014,07,29,11,11,15.60
2014,07,29,11,12,15.60
2014,07,29,11,13,15.60
2014,07,29,11,14,15.70
2014,07,29,11,15,15.70
2014,07,29,11,16,15.80
2014,07,29,11,17,15.80
2014,07,29,11,18,15.80
2014,07,29,11,19,15.90
2014,07,29,11,20,15.90
2014,07,29,11,21,15.90
2014,07,29,11,22,15.90
2014,07,29,11,23,15.90
2014,07,29,11,24,15.80
2014,07,29,11,25,15.80
2014,07,29,11,26,15.80
2014,07,29,11,27,15.90
2014,07,29,11,28,15.90
2014,07,29,11,29,16.00
2014,07,29,11,30,16.10
2014,07,29,11,31,16.10
2014,07,29,11,32,16.10
2014,07,29,11,33,16.10
2014,07,29,11,34,16.20
2014,07,29,11,35,16.20
2014,07,29,11,36,16.30
2014,07,29,11,37,16.30
2014,07,29,11,38,16.40
2014,07,29,11,39,16.40
2014,07,29,11,40,16.50
2014,07,29,11,41,16.60
2014,07,29,11,42,16.50
2014,07,29,11,43,16.60
2014,07,29,11,44,16.60
2014,07,29,11,45,16.60
2014,07,29,11,46,16.60
2014,07,29,11,47,16.70
2014,07,29,11,48,16.70
2014,07,29,11,49,16.70
2014,07,29,11,50,16.70
2014,07,29,11,51,16.60
2014,07,29,11,52,16.60
2014,07,29,11,53,16.60
2014,07,29,11,54,16.60
2014,07,29,11,55,16.60
2014,07,29,11,56,16.60
2014,07,29,11,57,16.60
2014,07,29,11,58,16.60
2014,07,29,11,59,16.50
2014,07,29,12,00,16.50
2014,07,29,12,01,16.50
2014,07,29,12,02,16.50
2014,07,29,12,03,16.40
2014,07,29,12,04,16.40
2014,07,29,12,05,16.40
2014,07,29,12,06,16.40
2014,07,29,12,07,16.30
2014,07,29,12,08,16.30
2014,07,29,12,09,16.30
2014,07,29,12,10,16.40
2014,07,29,12,11,16.40
2014,07,29,12,12,16.40
2014,07,29,12,13,16.40
2014,07,29,12,14,16.40
2014,07,29,12,15,16.40
2014,07,29,12,16,16.40
2014,07,29,12,17,16.40
2014,07,29,12,18,16.40
2014,07,29,12,19,16.30
2014,07,29,12,20,16.30
2014,07,29,12,21,16.20
2014,07,29,12,22,16.10
2014,07,29,12,23,16.00
2014,07,29,12,24,15.80
2014,07,29,12,25,15.60
2014,07,29,12,26,15.30
2014,07,29,12,27,15.10
2014,07,29,12,28,14.80
2014,07,29,12,29,14.60
2014,07,29,12,30,14.50
2014,07,29,12,31,14.40
2014,07,29,12,32,14.30
2014,07,29,12,33,14.20
2014,07,29,12,34,14.10
2014,07,29,12,35,14.00
2014,07,29,12,36,14.00
2014,07,29,12,37,13.90
2014,07,29,12,38,14.00
2014,07,29,12,39,14.00
2014,07,29,12,40,14.00
2014,07,29,12,41,13.90
2014,07,29,12,42,13.90
2014,07,29,12,43,13.80
2014,07,29,12,44,13.80
2014,07,29,12,45,13.80
2014,07,29,12,46,13.80
2014,07,29,12,47,13.80
2014,07,29,12,48,13.90
2014,07,29,12,49,14.00
2014,07,29,12,50,14.20
2014,07,29,12,51,14.30
2014,07,29,12,52,14.30
2014,07,29,12,53,14.30
2014,07,29,12,54,14.20
2014,07,29,12,55,14.10
2014,07,29,12,56,14.00
2014,07,29,12,57,13.80
2014,07,29,12,58,13.70
2014,07,29,12,59,13.60
2014,07,29,13,00,13.50
2014,07,29,13,01,13.40
2014,07,29,13,02,13.40
2014,07,29,13,03,13.30
2014,07,29,13,04,13.30
2014,07,29,13,05,13.40
2014,07,29,13,06,13.40
2014,07,29,13,07,13.30
2014,07,29,13,08,13.10
2014,07,29,13,09,13.00
2014,07,29,13,10,12.90
2014,07,29,13,11,12.90
2014,07,29,13,12,12.90
2014,07,29,13,13,13.00
2014,07,29,13,14,13.10
2014,07,29,13,15,13.30
2014,07,29,13,16,13.40
2014,07,29,13,17,13.40
2014,07,29,13,18,13.50
2014,07,29,13,19,13.50
2014,07,29,13,20,13.40
2014,07,29,13,21,13.40
2014,07,29,13,22,13.40
2014,07,29,13,23,13.40
2014,07,29,13,24,13.30
2014,07,29,13,25,13.30
2014,07,29,13,26,13.30
2014,07,29,13,27,13.40
2014,07,29,13,28,13.40
2014,07,29,13,29,13.50
2014,07,29,13,30,13.40
2014,07,29,13,31,13.50
2014,07,29,13,32,13.50
2014,07,29,13,33,13.40
2014,07,29,13,34,13.30
2014,07,29,13,35,13.30
2014,07,29,13,36,13.30
2014,07,29,13,37,13.20
2014,07,29,13,38,13.20
2014,07,29,13,39,13.20
2014,07,29,13,40,13.30
2014,07,29,13,41,13.30
2014,07,29,13,42,13.40
2014,07,29,13,43,13.50
2014,07,29,13,44,13.50
2014,07,29,13,45,13.60
2014,07,29,13,46,13.50
2014,07,29,13,47,13.50
2014,07,29,13,48,13.40
2014,07,29,13,49,13.40
2014,07,29,13,50,13.40
2014,07,29,13,51,13.40
2014,07,29,13,52,13.40
2014,07,29,13,53,13.40
2014,07,29,13,54,13.30
2014,07,29,13,55,13.30
2014,07,29,13,56,13.30
2014,07,29,13,57,13.30
2014,07,29,13,58,13.30
2014,07,29,13,59,13.30
2014,07,29,14,00,13.30
2014,07,29,14,01,13.40
2014,07,29,14,02,13.40
2014,07,29,14,03,13.50
2014,07,29,14,04,13.50
2014,07,29,14,05,13.50
2014,07,29,14,06,13.60
2014,07,29,14,07,13.60
2014,07,29,14,08,13.70
2014,07,29,14,09,13.70
2014,07,29,14,10,13.70
2014,07,29,14,11,13.80
2014,07,29,14,12,13.90
2014,07,29,14,13,13.90
2014,07,29,14,14,14.00
2014,07,29,14,15,14.10
2014,07,29,14,16,14.30
2014,07,29,14,17,14.40
2014,07,29,14,18,14.40
2014,07,29,14,19,14.30
2014,07,29,14,20,14.20
2014,07,29,14,21,14.20
2014,07,29,14,22,14.30
2014,07,29,14,23,14.30
2014,07,29,14,24,14.40
2014,07,29,14,25,14.40
2014,07,29,14,26,14.30
2014,07,29,14,27,14.20
2014,07,29,14,28,14.00
2014,07,29,14,29,14.00
2014,07,29,14,30,14.10
2014,07,29,14,31,14.20
2014,07,29,14,32,14.30
2014,07,29,14,33,14.30
2014,07,29,14,34,14.30
2014,07,29,14,35,14.40
2014,07,29,14,36,14.50
2014,07,29,14,37,14.70
2014,07,29,14,38,14.80
2014,07,29,14,39,14.90
2014,07,29,14,40,14.90
2014,07,29,14,41,14.90
2014,07,29,14,42,14.90
2014,07,29,14,43,14.80
2014,07,29,14,44,14.60
2014,07,29,14,45,14.50
2014,07,29,14,46,14.30
2014,07,29,14,47,14.30
2014,07,29,14,48,14.20
2014,07,29,14,49,14.20
2014,07,29,14,50,14.20
2014,07,29,14,51,14.10
2014,07,29,14,52,14.10
2014,07,29,14,53,14.00
2014,07,29,14,54,13.80
2014,07,29,14,55,13.70
2014,07,29,14,56,13.60
2014,07,29,14,57,13.60
2014,07,29,14,58,13.70
2014,07,29,14,59,13.80
2014,07,29,15,00,13.90
2014,07,29,15,01,14.00
2014,07,29,15,02,13.80
2014,07,29,15,03,13.60
2014,07,29,15,04,13.40
2014,07,29,15,05,13.40
2014,07,29,15,06,13.40
2014,07,29,15,07,13.50
2014,07,29,15,08,13.60
2014,07,29,15,09,13.50
2014,07,29,15,10,13.40
2014,07,29,15,11,13.30
2014,07,29,15,12,13.30
2014,07,29,15,13,13.50
2014,07,29,15,14,13.60
2014,07,29,15,15,13.70
2014,07,29,15,16,13.70
2014,07,29,15,17,13.80
2014,07,29,15,18,13.90
2014,07,29,15,19,13.90
2014,07,29,15,20,13.80
2014,07,29,15,21,13.80
2014,07,29,15,22,13.80
2014,07,29,15,23,13.70
2014,07,29,15,24,13.60
2014,07,29,15,25,13.50
2014,07,29,15,26,13.50
2014,07,29,15,27,13.50
2014,07,29,15,28,13.80
2014,07,29,15,29,14.00
2014,07,29,15,30,14.00
2014,07,29,15,31,13.90
2014,07,29,15,32,13.80
2014,07,29,15,33,13.90
2014,07,29,15,34,14.10
2014,07,29,15,35,14.80
2014,07,29,15,36,15.00
2014,07,29,15,37,14.80
2014,07,29,15,38,14.70
2014,07,29,15,39,15.00
2014,07,29,15,40,15.20
2014,07,29,15,41,15.60
2014,07,29,15,42,16.00
2014,07,29,15,43,15.80
2014,07,29,15,44,15.80
2014,07,29,15,45,15.40
2014,07,29,15,46,15.30
2014,07,29,15,47,15.40
2014,07,29,15,48,15.40
2014,07,29,15,49,15.30
2014,07,29,15,50,15.30
2014,07,29,15,51,15.50
2014,07,29,15,52,15.60
2014,07,29,15,53,15.40
2014,07,29,15,54,15.30
2014,07,29,15,55,15.30
2014,07,29,15,56,15.30
2014,07,29,15,57,15.50
2014,07,29,15,58,15.60
2014,07,29,15,59,15.60
2014,07,29,16,00,15.80
2014,07,29,16,01,16.00
2014,07,29,16,02,16.00
2014,07,29,16,03,16.20
2014,07,29,16,04,16.30
2014,07,29,16,05,16.60
2014,07,29,16,06,16.50
2014,07,29,16,07,16.60
2014,07,29,16,08,16.70
2014,07,29,16,09,16.90
2014,07,29,16,10,16.90
2014,07,29,16,11,16.90
2014,07,29,16,12,16.90
2014,07,29,16,13,16.80
2014,07,29,16,14,17.00
2014,07,29,16,15,17.50
2014,07,29,16,16,17.50
2014,07,29,16,17,17.50
2014,07,29,16,18,17.40
2014,07,29,16,19,17.60
2014,07,29,16,20,17.80
2014,07,29,16,21,17.80
2014,07,29,16,22,17.90
2014,07,29,16,23,17.80
2014,07,29,16,24,17.70
2014,07,29,16,25,17.80
2014,07,29,16,26,17.90
2014,07,29,16,27,18.00
2014,07,29,16,28,18.10
2014,07,29,16,29,18.30
2014,07,29,16,30,18.40
2014,07,29,16,31,18.20
2014,07,29,16,32,18.20
2014,07,29,16,33,18.30
2014,07,29,16,34,18.20
2014,07,29,16,35,18.20
2014,07,29,16,36,18.50
2014,07,29,16,37,18.70
2014,07,29,16,38,18.70
2014,07,29,16,39,18.50
2014,07,29,16,40,18.60
2014,07,29,16,41,18.70
2014,07,29,16,42,18.50
2014,07,29,16,43,18.40
2014,07,29,16,44,18.50
2014,07,29,16,45,18.30
2014,07,29,16,46,18.30
2014,07,29,16,47,18.40
2014,07,29,16,48,18.70
2014,07,29,16,49,18.80
2014,07,29,16,50,18.80
2014,07,29,16,51,19.00
2014,07,29,16,52,19.00
2014,07,29,16,53,19.10
2014,07,29,16,54,19.40
2014,07,29,16,55,19.60
2014,07,29,16,56,19.70
2014,07,29,16,57,19.80
2014,07,29,16,58,19.40
2014,07,29,16,59,19.40
2014,07,29,17,00,19.40
2014,07,29,17,01,19.40
2014,07,29,17,02,19.20
2014,07,29,17,03,19.10
2014,07,29,17,04,18.80
2014,07,29,17,05,18.80
2014,07,29,17,06,18.90
2014,07,29,17,07,19.40
2014,07,29,17,08,19.60
2014,07,29,17,09,19.40
2014,07,29,17,10,19.00
2014,07,29,17,11,18.70
2014,07,29,17,12,18.60
2014,07,29,17,13,18.60
2014,07,29,17,14,18.60
2014,07,29,17,15,18.70
2014,07,29,17,16,18.60
2014,07,29,17,17,18.30
2014,07,29,17,18,18.30
2014,07,29,17,19,18.60